Year,Month,Day,Hour,Minute,Value (Times are PST for windspeed in km/hr)
2022,05,14,00,00,25.00
2022,05,14,00,01,24.90
2022,05,14,00,02,26.10
2022,05,14,00,03,25.80
2022,05,14,00,04,24.00
2022,05,14,00,05,23.60
2022,05,14,00,06,23.50
2022,05,14,00,07,22.90
2022,05,14,00,08,23.00
2022,05,14,00,09,22.90
2022,05,14,00,10,23.30
2022,05,14,00,11,23.30
2022,05,14,00,12,20.40
2022,05,14,00,13,21.30
2022,05,14,00,14,19.80
2022,05,14,00,15,20.90
2022,05,14,00,16,23.10
2022,05,14,00,17,23.60
2022,05,14,00,18,23.30
2022,05,14,00,19,24.80
2022,05,14,00,20,21.60
2022,05,14,00,21,22.10
2022,05,14,00,22,21.20
2022,05,14,00,23,22.90
2022,05,14,00,24,21.70
2022,05,14,00,25,21.60
2022,05,14,00,26,21.50
2022,05,14,00,27,19.30
2022,05,14,00,28,22.00
2022,05,14,00,29,22.40
2022,05,14,00,30,20.30
2022,05,14,00,31,19.60
2022,05,14,00,32,21.80
2022,05,14,00,33,23.60
2022,05,14,00,34,20.50
2022,05,14,00,35,19.80
2022,05,14,00,36,21.80
2022,05,14,00,37,21.60
2022,05,14,00,38,20.00
2022,05,14,00,39,20.10
2022,05,14,00,40,21.50
2022,05,14,00,41,21.20
2022,05,14,00,42,19.40
2022,05,14,00,43,20.20
2022,05,14,00,44,17.70
2022,05,14,00,45,17.70
2022,05,14,00,46,18.40
2022,05,14,00,47,19.00
2022,05,14,00,48,18.00
2022,05,14,00,49,19.30
2022,05,14,00,50,20.10
2022,05,14,00,51,18.30
2022,05,14,00,52,19.80
2022,05,14,00,53,18.30
2022,05,14,00,54,19.50
2022,05,14,00,55,17.80
2022,05,14,00,56,20.10
2022,05,14,00,57,19.90
2022,05,14,00,58,19.00
2022,05,14,00,59,18.90
2022,05,14,01,00,18.60
2022,05,14,01,01,18.90
2022,05,14,01,02,19.60
2022,05,14,01,03,19.60
2022,05,14,01,04,19.40
2022,05,14,01,05,19.80
2022,05,14,01,06,18.10
2022,05,14,01,07,18.70
2022,05,14,01,08,17.90
2022,05,14,01,09,16.30
2022,05,14,01,10,18.80
2022,05,14,01,11,16.90
2022,05,14,01,12,15.20
2022,05,14,01,13,16.70
2022,05,14,01,14,15.10
2022,05,14,01,15,13.90
2022,05,14,01,16,14.10
2022,05,14,01,17,12.70
2022,05,14,01,18,12.70
2022,05,14,01,19,14.70
2022,05,14,01,20,15.40
2022,05,14,01,21,14.90
2022,05,14,01,22,13.00
2022,05,14,01,23,12.30
2022,05,14,01,24,11.00
2022,05,14,01,25,15.40
2022,05,14,01,26,15.80
2022,05,14,01,27,15.80
2022,05,14,01,28,16.30
2022,05,14,01,29,14.40
2022,05,14,01,30,13.00
2022,05,14,01,31,15.50
2022,05,14,01,32,17.30
2022,05,14,01,33,13.90
2022,05,14,01,34,15.00
2022,05,14,01,35,16.60
2022,05,14,01,36,14.80
2022,05,14,01,37,17.00
2022,05,14,01,38,16.60
2022,05,14,01,39,17.60
2022,05,14,01,40,16.30
2022,05,14,01,41,14.50
2022,05,14,01,42,11.40
2022,05,14,01,43,14.60
2022,05,14,01,44,13.10
2022,05,14,01,45,17.40
2022,05,14,01,46,13.00
2022,05,14,01,47,15.60
2022,05,14,01,48,14.80
2022,05,14,01,49,14.80
2022,05,14,01,50,18.40
2022,05,14,01,51,16.40
2022,05,14,01,52,16.60
2022,05,14,01,53,18.40
2022,05,14,01,54,17.60
2022,05,14,01,55,18.60
2022,05,14,01,56,15.40
2022,05,14,01,57,21.00
2022,05,14,01,58,16.50
2022,05,14,01,59,17.90
2022,05,14,02,00,16.80
2022,05,14,02,01,14.60
2022,05,14,02,02,14.00
2022,05,14,02,03,16.60
2022,05,14,02,04,17.10
2022,05,14,02,05,15.30
2022,05,14,02,06,14.70
2022,05,14,02,07,15.80
2022,05,14,02,08,14.00
2022,05,14,02,09,17.00
2022,05,14,02,10,19.50
2022,05,14,02,11,18.90
2022,05,14,02,12,15.10
2022,05,14,02,13,14.00
2022,05,14,02,14,14.20
2022,05,14,02,15,20.30
2022,05,14,02,16,17.80
2022,05,14,02,17,15.70
2022,05,14,02,18,15.30
2022,05,14,02,19,15.00
2022,05,14,02,20,18.70
2022,05,14,02,21,17.00
2022,05,14,02,22,13.70
2022,05,14,02,23,15.10
2022,05,14,02,24,16.80
2022,05,14,02,25,14.40
2022,05,14,02,26,12.80
2022,05,14,02,27,15.50
2022,05,14,02,28,16.70
2022,05,14,02,29,20.60
2022,05,14,02,30,18.00
2022,05,14,02,31,18.30
2022,05,14,02,32,15.70
2022,05,14,02,33,16.50
2022,05,14,02,34,11.70
2022,05,14,02,35,14.50
2022,05,14,02,36,15.90
2022,05,14,02,37,12.70
2022,05,14,02,38,16.60
2022,05,14,02,39,16.40
2022,05,14,02,40,15.50
2022,05,14,02,41,21.40
2022,05,14,02,42,15.90
2022,05,14,02,43,15.60
2022,05,14,02,44,15.20
2022,05,14,02,45,20.00
2022,05,14,02,46,18.10
2022,05,14,02,47,15.40
2022,05,14,02,48,15.10
2022,05,14,02,49,17.90
2022,05,14,02,50,16.80
2022,05,14,02,51,19.40
2022,05,14,02,52,18.20
2022,05,14,02,53,17.50
2022,05,14,02,54,14.00
2022,05,14,02,55,16.80
2022,05,14,02,56,17.50
2022,05,14,02,57,16.10
2022,05,14,02,58,17.50
2022,05,14,02,59,16.80
2022,05,14,03,00,17.70
2022,05,14,03,01,16.50
2022,05,14,03,02,16.80
2022,05,14,03,03,19.30
2022,05,14,03,04,14.60
2022,05,14,03,05,13.10
2022,05,14,03,06,13.70
2022,05,14,03,07,14.10
2022,05,14,03,08,15.40
2022,05,14,03,09,16.30
2022,05,14,03,10,15.50
2022,05,14,03,11,12.20
2022,05,14,03,12,15.10
2022,05,14,03,13,14.10
2022,05,14,03,14,12.40
2022,05,14,03,15,12.60
2022,05,14,03,16,12.40
2022,05,14,03,17,11.00
2022,05,14,03,18,14.00
2022,05,14,03,19,15.80
2022,05,14,03,20,16.20
2022,05,14,03,21,18.30
2022,05,14,03,22,15.70
2022,05,14,03,23,13.60
2022,05,14,03,24,13.40
2022,05,14,03,25,14.60
2022,05,14,03,26,14.00
2022,05,14,03,27,16.40
2022,05,14,03,28,16.90
2022,05,14,03,29,15.40
2022,05,14,03,30,17.50
2022,05,14,03,31,19.10
2022,05,14,03,32,19.00
2022,05,14,03,33,20.50
2022,05,14,03,34,16.40
2022,05,14,03,35,16.60
2022,05,14,03,36,16.40
2022,05,14,03,37,17.70
2022,05,14,03,38,15.00
2022,05,14,03,39,16.30
2022,05,14,03,40,16.00
2022,05,14,03,41,17.40
2022,05,14,03,42,17.60
2022,05,14,03,43,18.20
2022,05,14,03,44,16.60
2022,05,14,03,45,18.20
2022,05,14,03,46,16.00
2022,05,14,03,47,13.50
2022,05,14,03,48,14.90
2022,05,14,03,49,16.70
2022,05,14,03,50,19.10
2022,05,14,03,51,20.60
2022,05,14,03,52,16.30
2022,05,14,03,53,18.30
2022,05,14,03,54,17.40
2022,05,14,03,55,13.90
2022,05,14,03,56,15.10
2022,05,14,03,57,17.40
2022,05,14,03,58,13.40
2022,05,14,03,59,15.50
2022,05,14,04,00,15.70
2022,05,14,04,01,14.50
2022,05,14,04,02,14.00
2022,05,14,04,03,14.30
2022,05,14,04,04,12.60
2022,05,14,04,05,11.90
2022,05,14,04,06,16.30
2022,05,14,04,07,18.00
2022,05,14,04,08,13.10
2022,05,14,04,09,11.20
2022,05,14,04,10,11.40
2022,05,14,04,11,18.20
2022,05,14,04,12,17.60
2022,05,14,04,13,15.10
2022,05,14,04,14,17.00
2022,05,14,04,15,14.00
2022,05,14,04,16,13.60
2022,05,14,04,17,13.90
2022,05,14,04,18,14.80
2022,05,14,04,19,12.60
2022,05,14,04,20,17.80
2022,05,14,04,21,11.40
2022,05,14,04,22,17.80
2022,05,14,04,23,19.80
2022,05,14,04,24,19.40
2022,05,14,04,25,18.40
2022,05,14,04,26,17.90
2022,05,14,04,27,18.90
2022,05,14,04,28,17.20
2022,05,14,04,29,15.70
2022,05,14,04,30,12.40
2022,05,14,04,31,16.50
2022,05,14,04,32,17.70
2022,05,14,04,33,16.30
2022,05,14,04,34,16.50
2022,05,14,04,35,15.10
2022,05,14,04,36,13.30
2022,05,14,04,37,15.10
2022,05,14,04,38,17.00
2022,05,14,04,39,15.60
2022,05,14,04,40,13.20
2022,05,14,04,41,12.80
2022,05,14,04,42,14.40
2022,05,14,04,43,9.90
2022,05,14,04,44,7.10
2022,05,14,04,45,11.40
2022,05,14,04,46,12.50
2022,05,14,04,47,10.50
2022,05,14,04,48,14.80
2022,05,14,04,49,13.50
2022,05,14,04,50,10.30
2022,05,14,04,51,12.20
2022,05,14,04,52,13.20
2022,05,14,04,53,11.70
2022,05,14,04,54,14.70
2022,05,14,04,55,13.10
2022,05,14,04,56,13.70
2022,05,14,04,57,13.80
2022,05,14,04,58,14.00
2022,05,14,04,59,14.40
2022,05,14,05,00,15.50
2022,05,14,05,01,16.80
2022,05,14,05,02,17.80
2022,05,14,05,03,15.20
2022,05,14,05,04,14.50
2022,05,14,05,05,13.80
2022,05,14,05,06,12.40
2022,05,14,05,07,15.40
2022,05,14,05,08,12.90
2022,05,14,05,09,13.10
2022,05,14,05,10,12.50
2022,05,14,05,11,12.70
2022,05,14,05,12,9.90
2022,05,14,05,13,11.10
2022,05,14,05,14,13.00
2022,05,14,05,15,14.60
2022,05,14,05,16,13.80
2022,05,14,05,17,13.00
2022,05,14,05,18,13.20
2022,05,14,05,19,13.90
2022,05,14,05,20,13.40
2022,05,14,05,21,12.80
2022,05,14,05,22,15.70
2022,05,14,05,23,14.50
2022,05,14,05,24,17.10
2022,05,14,05,25,16.10
2022,05,14,05,26,14.00
2022,05,14,05,27,11.80
2022,05,14,05,28,13.40
2022,05,14,05,29,10.30
2022,05,14,05,30,8.20
2022,05,14,05,31,11.40
2022,05,14,05,32,12.00
2022,05,14,05,33,13.80
2022,05,14,05,34,11.60
2022,05,14,05,35,14.70
2022,05,14,05,36,10.30
2022,05,14,05,37,12.40
2022,05,14,05,38,14.40
2022,05,14,05,39,14.80
2022,05,14,05,40,14.50
2022,05,14,05,41,14.50
2022,05,14,05,42,13.70
2022,05,14,05,43,13.20
2022,05,14,05,44,10.70
2022,05,14,05,45,14.00
2022,05,14,05,46,10.40
2022,05,14,05,47,9.00
2022,05,14,05,48,10.30
2022,05,14,05,49,10.40
2022,05,14,05,50,12.60
2022,05,14,05,51,12.40
2022,05,14,05,52,13.80
2022,05,14,05,53,12.20
2022,05,14,05,54,12.00
2022,05,14,05,55,14.10
2022,05,14,05,56,13.30
2022,05,14,05,57,11.80
2022,05,14,05,58,11.40
2022,05,14,05,59,14.10
2022,05,14,06,00,12.90
2022,05,14,06,01,13.50
2022,05,14,06,02,12.50
2022,05,14,06,03,13.00
2022,05,14,06,04,12.00
2022,05,14,06,05,13.90
2022,05,14,06,06,14.60
2022,05,14,06,07,11.60
2022,05,14,06,08,12.20
2022,05,14,06,09,8.10
2022,05,14,06,10,10.30
2022,05,14,06,11,12.40
2022,05,14,06,12,13.80
2022,05,14,06,13,12.30
2022,05,14,06,14,11.80
2022,05,14,06,15,13.70
2022,05,14,06,16,14.40
2022,05,14,06,17,13.70
2022,05,14,06,18,10.80
2022,05,14,06,19,11.30
2022,05,14,06,20,10.80
2022,05,14,06,21,11.00
2022,05,14,06,22,10.30
2022,05,14,06,23,9.40
2022,05,14,06,24,11.40
2022,05,14,06,25,11.90
2022,05,14,06,26,12.10
2022,05,14,06,27,10.30
2022,05,14,06,28,11.10
2022,05,14,06,29,9.70
2022,05,14,06,30,12.50
2022,05,14,06,31,13.00
2022,05,14,06,32,13.60
2022,05,14,06,33,14.00
2022,05,14,06,34,12.50
2022,05,14,06,35,12.90
2022,05,14,06,36,11.30
2022,05,14,06,37,11.50
2022,05,14,06,38,13.90
2022,05,14,06,39,14.40
2022,05,14,06,40,13.70
2022,05,14,06,41,12.30
2022,05,14,06,42,15.60
2022,05,14,06,43,14.90
2022,05,14,06,44,14.90
2022,05,14,06,45,16.40
2022,05,14,06,46,16.00
2022,05,14,06,47,16.40
2022,05,14,06,48,14.40
2022,05,14,06,49,16.20
2022,05,14,06,50,14.30
2022,05,14,06,51,14.60
2022,05,14,06,52,13.00
2022,05,14,06,53,12.40
2022,05,14,06,54,13.80
2022,05,14,06,55,12.60
2022,05,14,06,56,14.90
2022,05,14,06,57,13.20
2022,05,14,06,58,14.00
2022,05,14,06,59,13.70
2022,05,14,07,00,14.60
2022,05,14,07,01,13.00
2022,05,14,07,02,12.80
2022,05,14,07,03,14.00
2022,05,14,07,04,11.90
2022,05,14,07,05,12.20
2022,05,14,07,06,9.20
2022,05,14,07,07,11.20
2022,05,14,07,08,14.90
2022,05,14,07,09,14.30
2022,05,14,07,10,15.50
2022,05,14,07,11,16.50
2022,05,14,07,12,16.00
2022,05,14,07,13,16.30
2022,05,14,07,14,14.50
2022,05,14,07,15,16.90
2022,05,14,07,16,15.50
2022,05,14,07,17,16.80
2022,05,14,07,18,15.50
2022,05,14,07,19,16.30
2022,05,14,07,20,14.10
2022,05,14,07,21,11.10
2022,05,14,07,22,15.90
2022,05,14,07,23,15.70
2022,05,14,07,24,15.00
2022,05,14,07,25,13.60
2022,05,14,07,26,15.00
2022,05,14,07,27,14.90
2022,05,14,07,28,16.40
2022,05,14,07,29,14.00
2022,05,14,07,30,15.80
2022,05,14,07,31,15.00
2022,05,14,07,32,14.00
2022,05,14,07,33,12.00
2022,05,14,07,34,15.10
2022,05,14,07,35,15.40
2022,05,14,07,36,13.00
2022,05,14,07,37,11.00
2022,05,14,07,38,15.00
2022,05,14,07,39,13.70
2022,05,14,07,40,12.00
2022,05,14,07,41,15.20
2022,05,14,07,42,16.10
2022,05,14,07,43,16.40
2022,05,14,07,44,15.30
2022,05,14,07,45,15.90
2022,05,14,07,46,14.50
2022,05,14,07,47,15.10
2022,05,14,07,48,16.00
2022,05,14,07,49,17.50
2022,05,14,07,50,16.70
2022,05,14,07,51,15.50
2022,05,14,07,52,15.80
2022,05,14,07,53,17.40
2022,05,14,07,54,14.60
2022,05,14,07,55,14.40
2022,05,14,07,56,15.30
2022,05,14,07,57,15.50
2022,05,14,07,58,17.20
2022,05,14,07,59,19.60
2022,05,14,08,00,17.20
2022,05,14,08,01,16.00
2022,05,14,08,02,17.00
2022,05,14,08,03,17.40
2022,05,14,08,04,15.00
2022,05,14,08,05,17.80
2022,05,14,08,06,14.90
2022,05,14,08,07,13.40
2022,05,14,08,08,14.60
2022,05,14,08,09,16.90
2022,05,14,08,10,16.10
2022,05,14,08,11,16.20
2022,05,14,08,12,11.70
2022,05,14,08,13,17.50
2022,05,14,08,14,19.10
2022,05,14,08,15,18.10
2022,05,14,08,16,16.60
2022,05,14,08,17,18.30
2022,05,14,08,18,17.00
2022,05,14,08,19,14.70
2022,05,14,08,20,14.20
2022,05,14,08,21,16.30
2022,05,14,08,22,17.10
2022,05,14,08,23,15.00
2022,05,14,08,24,18.10
2022,05,14,08,25,15.30
2022,05,14,08,26,16.40
2022,05,14,08,27,15.50
2022,05,14,08,28,16.20
2022,05,14,08,29,18.70
2022,05,14,08,30,20.90
2022,05,14,08,31,19.20
2022,05,14,08,32,14.00
2022,05,14,08,33,14.60
2022,05,14,08,34,16.00
2022,05,14,08,35,15.50
2022,05,14,08,36,13.50
2022,05,14,08,37,18.80
2022,05,14,08,38,17.90
2022,05,14,08,39,18.50
2022,05,14,08,40,17.50
2022,05,14,08,41,16.70
2022,05,14,08,42,16.60
2022,05,14,08,43,16.20
2022,05,14,08,44,15.80
2022,05,14,08,45,14.40
2022,05,14,08,46,16.10
2022,05,14,08,47,15.10
2022,05,14,08,48,15.00
2022,05,14,08,49,18.50
2022,05,14,08,50,16.70
2022,05,14,08,51,15.10
2022,05,14,08,52,16.80
2022,05,14,08,53,18.40
2022,05,14,08,54,20.70
2022,05,14,08,55,18.00
2022,05,14,08,56,17.10
2022,05,14,08,57,17.80
2022,05,14,08,58,15.60
2022,05,14,08,59,15.80
2022,05,14,09,00,16.80
2022,05,14,09,01,17.60
2022,05,14,09,02,15.80
2022,05,14,09,03,16.30
2022,05,14,09,04,16.60
2022,05,14,09,05,14.50
2022,05,14,09,06,16.70
2022,05,14,09,07,15.30
2022,05,14,09,08,15.20
2022,05,14,09,09,14.60
2022,05,14,09,10,14.50
2022,05,14,09,11,11.50
2022,05,14,09,12,13.60
2022,05,14,09,13,14.30
2022,05,14,09,14,15.40
2022,05,14,09,15,14.40
2022,05,14,09,16,14.40
2022,05,14,09,17,14.80
2022,05,14,09,18,15.10
2022,05,14,09,19,17.40
2022,05,14,09,20,16.40
2022,05,14,09,21,17.30
2022,05,14,09,22,15.10
2022,05,14,09,23,18.00
2022,05,14,09,24,16.00
2022,05,14,09,25,15.20
2022,05,14,09,26,13.50
2022,05,14,09,27,16.10
2022,05,14,09,28,18.90
2022,05,14,09,29,16.10
2022,05,14,09,30,15.30
2022,05,14,09,31,15.60
2022,05,14,09,32,15.00
2022,05,14,09,33,14.80
2022,05,14,09,34,14.50
2022,05,14,09,35,14.80
2022,05,14,09,36,14.60
2022,05,14,09,37,16.60
2022,05,14,09,38,16.50
2022,05,14,09,39,14.60
2022,05,14,09,40,14.00
2022,05,14,09,41,13.70
2022,05,14,09,42,12.80
2022,05,14,09,43,12.70
2022,05,14,09,44,11.40
2022,05,14,09,45,16.60
2022,05,14,09,46,14.90
2022,05,14,09,47,15.60
2022,05,14,09,48,14.80
2022,05,14,09,49,14.50
2022,05,14,09,50,16.80
2022,05,14,09,51,14.10
2022,05,14,09,52,13.40
2022,05,14,09,53,10.10
2022,05,14,09,54,10.90
2022,05,14,09,55,11.20
2022,05,14,09,56,16.20
2022,05,14,09,57,15.10
2022,05,14,09,58,14.50
2022,05,14,09,59,15.20
2022,05,14,10,00,14.80
2022,05,14,10,01,15.70
2022,05,14,10,02,17.20
2022,05,14,10,03,16.50
2022,05,14,10,04,14.60
2022,05,14,10,05,14.40
2022,05,14,10,06,16.10
2022,05,14,10,07,16.90
2022,05,14,10,08,14.80
2022,05,14,10,09,14.70
2022,05,14,10,10,15.80
2022,05,14,10,11,17.70
2022,05,14,10,12,18.90
2022,05,14,10,13,18.70
2022,05,14,10,14,19.50
2022,05,14,10,15,18.60
2022,05,14,10,16,17.90
2022,05,14,10,17,16.30
2022,05,14,10,18,17.50
2022,05,14,10,19,17.10
2022,05,14,10,20,14.40
2022,05,14,10,21,15.50
2022,05,14,10,22,14.90
2022,05,14,10,23,13.70
2022,05,14,10,24,14.40
2022,05,14,10,25,14.90
2022,05,14,10,26,14.80
2022,05,14,10,27,14.20
2022,05,14,10,28,14.00
2022,05,14,10,29,15.40
2022,05,14,10,30,15.10
2022,05,14,10,31,15.70
2022,05,14,10,32,16.10
2022,05,14,10,33,17.40
2022,05,14,10,34,18.60
2022,05,14,10,35,18.10
2022,05,14,10,36,17.60
2022,05,14,10,37,17.00
2022,05,14,10,38,19.70
2022,05,14,10,39,17.80
2022,05,14,10,40,16.80
2022,05,14,10,41,15.70
2022,05,14,10,42,13.10
2022,05,14,10,43,16.70
2022,05,14,10,44,15.40
2022,05,14,10,45,15.50
2022,05,14,10,46,15.60
2022,05,14,10,47,16.60
2022,05,14,10,48,17.60
2022,05,14,10,49,15.90
2022,05,14,10,50,14.40
2022,05,14,10,51,18.80
2022,05,14,10,52,18.70
2022,05,14,10,53,17.40
2022,05,14,10,54,14.10
2022,05,14,10,55,18.00
2022,05,14,10,56,16.00
2022,05,14,10,57,17.70
2022,05,14,10,58,17.10
2022,05,14,10,59,18.20
2022,05,14,11,00,18.20
2022,05,14,11,01,17.00
2022,05,14,11,02,15.40
2022,05,14,11,03,13.90
2022,05,14,11,04,15.50
2022,05,14,11,05,15.00
2022,05,14,11,06,16.50
2022,05,14,11,07,16.40
2022,05,14,11,08,14.90
2022,05,14,11,09,16.10
2022,05,14,11,10,17.60
2022,05,14,11,11,17.30
2022,05,14,11,12,14.40
2022,05,14,11,13,16.10
2022,05,14,11,14,14.90
2022,05,14,11,15,13.60
2022,05,14,11,16,13.70
2022,05,14,11,17,9.50
2022,05,14,11,18,11.90
2022,05,14,11,19,14.00
2022,05,14,11,20,14.20
2022,05,14,11,21,13.90
2022,05,14,11,22,13.20
2022,05,14,11,23,15.40
2022,05,14,11,24,16.30
2022,05,14,11,25,17.20
2022,05,14,11,26,18.10
2022,05,14,11,27,19.90
2022,05,14,11,28,16.90
2022,05,14,11,29,14.50
2022,05,14,11,30,15.70
2022,05,14,11,31,16.80
2022,05,14,11,32,17.60
2022,05,14,11,33,14.70
2022,05,14,11,34,15.70
2022,05,14,11,35,15.60
2022,05,14,11,36,13.20
2022,05,14,11,37,15.40
2022,05,14,11,38,12.70
2022,05,14,11,39,13.50
2022,05,14,11,40,14.20
2022,05,14,11,41,15.20
2022,05,14,11,42,16.90
2022,05,14,11,43,17.00
2022,05,14,11,44,17.90
2022,05,14,11,45,16.10
2022,05,14,11,46,12.80
2022,05,14,11,47,13.90
2022,05,14,11,48,14.10
2022,05,14,11,49,16.10
2022,05,14,11,50,14.80
2022,05,14,11,51,16.90
2022,05,14,11,52,13.60
2022,05,14,11,53,17.20
2022,05,14,11,54,16.30
2022,05,14,11,55,15.70
2022,05,14,11,56,15.40
2022,05,14,11,57,13.90
2022,05,14,11,58,13.20
2022,05,14,11,59,14.30
2022,05,14,12,00,12.30
2022,05,14,12,01,15.20
2022,05,14,12,02,14.60
2022,05,14,12,03,14.20
2022,05,14,12,04,15.30
2022,05,14,12,05,15.20
2022,05,14,12,06,18.20
2022,05,14,12,07,15.30
2022,05,14,12,08,16.00
2022,05,14,12,09,15.90
2022,05,14,12,10,15.30
2022,05,14,12,11,14.60
2022,05,14,12,12,17.40
2022,05,14,12,13,14.80
2022,05,14,12,14,15.40
2022,05,14,12,15,14.30
2022,05,14,12,16,15.70
2022,05,14,12,17,15.80
2022,05,14,12,18,15.70
2022,05,14,12,19,14.30
2022,05,14,12,20,15.30
2022,05,14,12,21,16.50
2022,05,14,12,22,14.30
2022,05,14,12,23,13.00
2022,05,14,12,24,14.40
2022,05,14,12,25,15.90
2022,05,14,12,26,13.60
2022,05,14,12,27,14.80
2022,05,14,12,28,15.90
2022,05,14,12,29,15.70
2022,05,14,12,30,16.00
2022,05,14,12,31,15.10
2022,05,14,12,32,14.80
2022,05,14,12,33,14.80
2022,05,14,12,34,13.00
2022,05,14,12,35,12.50
2022,05,14,12,36,15.90
2022,05,14,12,37,15.50
2022,05,14,12,38,15.10
2022,05,14,12,39,14.80
2022,05,14,12,40,14.40
2022,05,14,12,41,12.00
2022,05,14,12,42,10.80
2022,05,14,12,43,15.70
2022,05,14,12,44,17.50
2022,05,14,12,45,15.30
2022,05,14,12,46,18.60
2022,05,14,12,47,17.40
2022,05,14,12,48,17.40
2022,05,14,12,49,18.50
2022,05,14,12,50,14.10
2022,05,14,12,51,12.90
2022,05,14,12,52,14.50
2022,05,14,12,53,11.90
2022,05,14,12,54,14.00
2022,05,14,12,55,14.50
2022,05,14,12,56,13.40
2022,05,14,12,57,16.20
2022,05,14,12,58,17.20
2022,05,14,12,59,15.30
2022,05,14,13,00,16.20
2022,05,14,13,01,14.00
2022,05,14,13,02,13.40
2022,05,14,13,03,16.60
2022,05,14,13,04,17.90
2022,05,14,13,05,15.80
2022,05,14,13,06,14.50
2022,05,14,13,07,14.30
2022,05,14,13,08,16.70
2022,05,14,13,09,17.10
2022,05,14,13,10,15.90
2022,05,14,13,11,16.40
2022,05,14,13,12,16.50
2022,05,14,13,13,13.20
2022,05,14,13,14,11.70
2022,05,14,13,15,9.20
2022,05,14,13,16,11.60
2022,05,14,13,17,14.90
2022,05,14,13,18,10.30
2022,05,14,13,19,13.30
2022,05,14,13,20,12.80
2022,05,14,13,21,14.70
2022,05,14,13,22,14.50
2022,05,14,13,23,16.30
2022,05,14,13,24,16.10
2022,05,14,13,25,16.00
2022,05,14,13,26,15.10
2022,05,14,13,27,15.50
2022,05,14,13,28,14.60
2022,05,14,13,29,12.40
2022,05,14,13,30,16.00
2022,05,14,13,31,16.70
2022,05,14,13,32,15.70
2022,05,14,13,33,15.40
2022,05,14,13,34,16.10
2022,05,14,13,35,16.40
2022,05,14,13,36,15.40
2022,05,14,13,37,15.00
2022,05,14,13,38,14.10
2022,05,14,13,39,16.80
2022,05,14,13,40,18.60
2022,05,14,13,41,17.80
2022,05,14,13,42,17.90
2022,05,14,13,43,17.80
2022,05,14,13,44,17.20
2022,05,14,13,45,15.90
2022,05,14,13,46,16.60
2022,05,14,13,47,17.70
2022,05,14,13,48,17.40
2022,05,14,13,49,18.60
2022,05,14,13,50,16.40
2022,05,14,13,51,15.40
2022,05,14,13,52,14.50
2022,05,14,13,53,18.10
2022,05,14,13,54,18.20
2022,05,14,13,55,18.60
2022,05,14,13,56,18.90
2022,05,14,13,57,20.20
2022,05,14,13,58,20.50
2022,05,14,13,59,20.30
2022,05,14,14,00,16.40
2022,05,14,14,01,17.00
2022,05,14,14,02,18.60
2022,05,14,14,03,17.00
2022,05,14,14,04,19.30
2022,05,14,14,05,20.50
2022,05,14,14,06,19.90
2022,05,14,14,07,21.70
2022,05,14,14,08,18.80
2022,05,14,14,09,19.10
2022,05,14,14,10,17.90
2022,05,14,14,11,16.40
2022,05,14,14,12,20.00
2022,05,14,14,13,21.00
2022,05,14,14,14,20.90
2022,05,14,14,15,20.80
2022,05,14,14,16,17.90
2022,05,14,14,17,15.30
2022,05,14,14,18,16.80
2022,05,14,14,19,15.70
2022,05,14,14,20,16.40
2022,05,14,14,21,16.00
2022,05,14,14,22,16.50
2022,05,14,14,23,16.10
2022,05,14,14,24,19.30
2022,05,14,14,25,17.40
2022,05,14,14,26,17.00
2022,05,14,14,27,17.40
2022,05,14,14,28,19.20
2022,05,14,14,29,17.80
2022,05,14,14,30,18.20
2022,05,14,14,31,19.70
2022,05,14,14,32,18.80
2022,05,14,14,33,18.70
2022,05,14,14,34,20.50
2022,05,14,14,35,19.90
2022,05,14,14,36,18.50
2022,05,14,14,37,19.80
2022,05,14,14,38,17.90
2022,05,14,14,39,19.50
2022,05,14,14,40,19.30
2022,05,14,14,41,19.10
2022,05,14,14,42,19.00
2022,05,14,14,43,17.60
2022,05,14,14,44,20.00
2022,05,14,14,45,19.20
2022,05,14,14,46,18.30
2022,05,14,14,47,19.40
2022,05,14,14,48,18.30
2022,05,14,14,49,16.30
2022,05,14,14,50,17.80
2022,05,14,14,51,18.40
2022,05,14,14,52,17.90
2022,05,14,14,53,17.10
2022,05,14,14,54,15.20
2022,05,14,14,55,15.90
2022,05,14,14,56,13.00
2022,05,14,14,57,14.00
2022,05,14,14,58,14.20
2022,05,14,14,59,13.40
2022,05,14,15,00,14.70
2022,05,14,15,01,14.80
2022,05,14,15,02,14.10
2022,05,14,15,03,15.30
2022,05,14,15,04,16.20
2022,05,14,15,05,13.30
2022,05,14,15,06,15.80
2022,05,14,15,07,16.00
2022,05,14,15,08,15.70
2022,05,14,15,09,15.50
2022,05,14,15,10,13.90
2022,05,14,15,11,11.10
2022,05,14,15,12,11.00
2022,05,14,15,13,13.20
2022,05,14,15,14,12.80
2022,05,14,15,15,15.00
2022,05,14,15,16,13.70
2022,05,14,15,17,15.50
2022,05,14,15,18,16.10
2022,05,14,15,19,15.40
2022,05,14,15,20,16.00
2022,05,14,15,21,15.80
2022,05,14,15,22,13.00
2022,05,14,15,23,12.10
2022,05,14,15,24,9.30
2022,05,14,15,25,9.40
2022,05,14,15,26,15.60
2022,05,14,15,27,14.60
2022,05,14,15,28,10.40
2022,05,14,15,29,10.00
2022,05,14,15,30,10.20
2022,05,14,15,31,6.90
2022,05,14,15,32,7.80
2022,05,14,15,33,8.80
2022,05,14,15,34,10.20
2022,05,14,15,35,13.80
2022,05,14,15,36,12.50
2022,05,14,15,37,11.30
2022,05,14,15,38,10.60
2022,05,14,15,39,12.40
2022,05,14,15,40,11.70
2022,05,14,15,41,14.60
2022,05,14,15,42,13.40
2022,05,14,15,43,13.40
2022,05,14,15,44,12.80
2022,05,14,15,45,11.00
2022,05,14,15,46,9.60
2022,05,14,15,47,9.50
2022,05,14,15,48,11.80
2022,05,14,15,49,11.40
2022,05,14,15,50,9.60
2022,05,14,15,51,13.40
2022,05,14,15,52,12.20
2022,05,14,15,53,15.50
2022,05,14,15,54,14.10
2022,05,14,15,55,13.90
2022,05,14,15,56,13.70
2022,05,14,15,57,12.80
2022,05,14,15,58,13.00
2022,05,14,15,59,10.20
2022,05,14,16,00,14.00
2022,05,14,16,01,13.90
2022,05,14,16,02,14.60
2022,05,14,16,03,14.50
2022,05,14,16,04,11.20
2022,05,14,16,05,14.30
2022,05,14,16,06,11.80
2022,05,14,16,07,14.40
2022,05,14,16,08,14.20
2022,05,14,16,09,13.70
2022,05,14,16,10,13.60
2022,05,14,16,11,11.60
2022,05,14,16,12,13.70
2022,05,14,16,13,13.90
2022,05,14,16,14,13.70
2022,05,14,16,15,14.00
2022,05,14,16,16,12.60
2022,05,14,16,17,12.10
2022,05,14,16,18,12.10
2022,05,14,16,19,12.20
2022,05,14,16,20,11.30
2022,05,14,16,21,10.30
2022,05,14,16,22,10.70
2022,05,14,16,23,11.90
2022,05,14,16,24,12.20
2022,05,14,16,25,10.80
2022,05,14,16,26,10.80
2022,05,14,16,27,13.40
2022,05,14,16,28,12.70
2022,05,14,16,29,13.70
2022,05,14,16,30,12.70
2022,05,14,16,31,11.90
2022,05,14,16,32,11.60
2022,05,14,16,33,10.90
2022,05,14,16,34,8.90
2022,05,14,16,35,9.60
2022,05,14,16,36,9.80
2022,05,14,16,37,9.30
2022,05,14,16,38,11.50
2022,05,14,16,39,12.90
2022,05,14,16,40,14.30
2022,05,14,16,41,12.50
2022,05,14,16,42,11.90
2022,05,14,16,43,11.30
2022,05,14,16,44,11.40
2022,05,14,16,45,10.60
2022,05,14,16,46,12.80
2022,05,14,16,47,10.60
2022,05,14,16,48,11.00
2022,05,14,16,49,10.70
2022,05,14,16,50,11.90
2022,05,14,16,51,9.10
2022,05,14,16,52,11.10
2022,05,14,16,53,10.50
2022,05,14,16,54,10.70
2022,05,14,16,55,9.00
2022,05,14,16,56,8.70
2022,05,14,16,57,10.10
2022,05,14,16,58,11.40
2022,05,14,16,59,13.10
2022,05,14,17,00,13.30
2022,05,14,17,01,13.80
2022,05,14,17,02,13.80
2022,05,14,17,03,12.70
2022,05,14,17,04,12.90
2022,05,14,17,05,12.90
2022,05,14,17,06,14.90
2022,05,14,17,07,14.00
2022,05,14,17,08,15.70
2022,05,14,17,09,16.40
2022,05,14,17,10,16.00
2022,05,14,17,11,18.30
2022,05,14,17,12,17.70
2022,05,14,17,13,18.20
2022,05,14,17,14,16.10
2022,05,14,17,15,18.30
2022,05,14,17,16,17.80
2022,05,14,17,17,18.00
2022,05,14,17,18,17.20
2022,05,14,17,19,16.50
2022,05,14,17,20,15.80